sat.trackr.live / text

‹ back to catalog

STARLINK-3157

NORAD 49413 · 2021-104F

PAYLOAD ACTIVE UNKNOWN

§ Identity

Operator
Country
US
Launch date
2021-11-13
Launch site
AFETR
Launch vehicle
Mass (kg)
RCS (m²)

Purposes: comms

External: N2YO · Heavens-Above · Gunter

§ Orbital elements

Epoch: 2026-05-24T22:51:31.331808Z

Period
95.44 min
Inclination
53.2139°
Eccentricity
0.0001259
Mean motion
15.08836291 rev/d
Perigee alt
538.9 km
Apogee alt
540.6 km
Semi-major
6,917.9 km
B*
2.8182e-5
RAAN
236.7743°
Arg perigee
84.2166°
Mean anomaly
275.8969°
Rev number
25,028

§ Raw data

STARLINK-31571 49413U 21104F   26144.95244597  .00000161  00000+0  28182-4 0  99932 49413  53.2139 236.7743 0001259  84.2166 275.8969 15.08836291250288

JSON: /api/v1/satellites/49413 · /tle

For live sub-satellite position, see the globe view (requires WebGL).

§ Visibility from observer

Set your observer location to see the next 7 days of passes ≥ 10°. The values pass through the URL so the page stays shareable.

No JS? Fill the form by hand. The geolocation button needs JavaScript.